Year,Month,Day,Hour,Minute,Value (Times are PST for temperature in C)
2011,09,24,00,00,19.40
2011,09,24,00,01,19.40
2011,09,24,00,02,19.50
2011,09,24,00,03,19.50
2011,09,24,00,04,19.50
2011,09,24,00,05,19.50
2011,09,24,00,06,19.40
2011,09,24,00,07,19.40
2011,09,24,00,08,19.40
2011,09,24,00,09,19.40
2011,09,24,00,10,19.40
2011,09,24,00,11,19.30
2011,09,24,00,12,19.30
2011,09,24,00,13,19.30
2011,09,24,00,14,19.30
2011,09,24,00,15,19.30
2011,09,24,00,16,19.30
2011,09,24,00,17,19.30
2011,09,24,00,18,19.30
2011,09,24,00,19,19.30
2011,09,24,00,20,19.30
2011,09,24,00,21,19.30
2011,09,24,00,22,19.30
2011,09,24,00,23,19.40
2011,09,24,00,24,19.40
2011,09,24,00,25,19.40
2011,09,24,00,26,19.40
2011,09,24,00,27,19.40
2011,09,24,00,28,19.40
2011,09,24,00,29,19.40
2011,09,24,00,30,19.40
2011,09,24,00,31,19.40
2011,09,24,00,32,19.40
2011,09,24,00,33,19.40
2011,09,24,00,34,19.40
2011,09,24,00,35,19.40
2011,09,24,00,36,19.40
2011,09,24,00,37,19.40
2011,09,24,00,38,19.30
2011,09,24,00,39,19.30
2011,09,24,00,40,19.30
2011,09,24,00,41,19.40
2011,09,24,00,42,19.40
2011,09,24,00,43,19.40
2011,09,24,00,44,19.40
2011,09,24,00,45,19.40
2011,09,24,00,46,19.40
2011,09,24,00,47,19.40
2011,09,24,00,48,19.50
2011,09,24,00,49,19.50
2011,09,24,00,50,19.50
2011,09,24,00,51,19.50
2011,09,24,00,52,19.50
2011,09,24,00,53,19.50
2011,09,24,00,54,19.50
2011,09,24,00,55,19.50
2011,09,24,00,56,19.50
2011,09,24,00,57,19.50
2011,09,24,00,58,19.40
2011,09,24,00,59,19.40
2011,09,24,01,00,19.40
2011,09,24,01,01,19.40
2011,09,24,01,02,19.40
2011,09,24,01,03,19.40
2011,09,24,01,04,19.40
2011,09,24,01,05,19.40
2011,09,24,01,06,19.40
2011,09,24,01,07,19.40
2011,09,24,01,08,19.40
2011,09,24,01,09,19.40
2011,09,24,01,10,19.40
2011,09,24,01,11,19.40
2011,09,24,01,12,19.30
2011,09,24,01,13,19.30
2011,09,24,01,14,19.30
2011,09,24,01,15,19.30
2011,09,24,01,16,19.30
2011,09,24,01,17,19.20
2011,09,24,01,18,18.90
2011,09,24,01,19,18.40
2011,09,24,01,20,17.70
2011,09,24,01,21,17.10
2011,09,24,01,22,16.50
2011,09,24,01,23,16.00
2011,09,24,01,24,15.50
2011,09,24,01,25,15.10
2011,09,24,01,26,14.90
2011,09,24,01,27,14.60
2011,09,24,01,28,14.30
2011,09,24,01,29,14.10
2011,09,24,01,30,14.00
2011,09,24,01,31,13.90
2011,09,24,01,32,13.80
2011,09,24,01,33,13.70
2011,09,24,01,34,13.60
2011,09,24,01,35,13.50
2011,09,24,01,36,13.50
2011,09,24,01,37,13.40
2011,09,24,01,38,13.40
2011,09,24,01,39,13.30
2011,09,24,01,40,13.30
2011,09,24,01,41,13.30
2011,09,24,01,42,13.20
2011,09,24,01,43,13.20
2011,09,24,01,44,13.20
2011,09,24,01,45,13.20
2011,09,24,01,46,13.20
2011,09,24,01,47,13.10
2011,09,24,01,48,13.10
2011,09,24,01,49,13.10
2011,09,24,01,50,13.10
2011,09,24,01,51,13.10
2011,09,24,01,52,13.10
2011,09,24,01,53,13.10
2011,09,24,01,54,13.10
2011,09,24,01,55,13.10
2011,09,24,01,56,13.00
2011,09,24,01,57,13.00
2011,09,24,01,58,13.00
2011,09,24,01,59,13.00
2011,09,24,02,00,13.00
2011,09,24,02,01,13.00
2011,09,24,02,02,12.90
2011,09,24,02,03,12.90
2011,09,24,02,04,12.90
2011,09,24,02,05,12.90
2011,09,24,02,06,12.90
2011,09,24,02,07,12.90
2011,09,24,02,08,12.90
2011,09,24,02,09,12.90
2011,09,24,02,10,12.90
2011,09,24,02,11,12.90
2011,09,24,02,12,12.90
2011,09,24,02,13,12.90
2011,09,24,02,14,12.90
2011,09,24,02,15,12.90
2011,09,24,02,16,12.90
2011,09,24,02,17,12.90
2011,09,24,02,18,12.90
2011,09,24,02,19,12.90
2011,09,24,02,20,12.90
2011,09,24,02,21,12.90
2011,09,24,02,22,12.90
2011,09,24,02,23,12.90
2011,09,24,02,24,12.90
2011,09,24,02,25,12.90
2011,09,24,02,26,12.90
2011,09,24,02,27,12.90
2011,09,24,02,28,12.90
2011,09,24,02,29,12.90
2011,09,24,02,30,12.90
2011,09,24,02,31,12.90
2011,09,24,02,32,12.90
2011,09,24,02,33,12.80
2011,09,24,02,34,12.80
2011,09,24,02,35,12.80
2011,09,24,02,36,12.80
2011,09,24,02,37,12.80
2011,09,24,02,38,12.80
2011,09,24,02,39,12.80
2011,09,24,02,40,12.80
2011,09,24,02,41,12.80
2011,09,24,02,42,12.80
2011,09,24,02,43,12.80
2011,09,24,02,44,12.80
2011,09,24,02,45,12.80
2011,09,24,02,46,12.80
2011,09,24,02,47,12.80
2011,09,24,02,48,12.80
2011,09,24,02,49,12.80
2011,09,24,02,50,12.80
2011,09,24,02,51,12.80
2011,09,24,02,52,12.80
2011,09,24,02,53,12.80
2011,09,24,02,54,12.80
2011,09,24,02,55,12.80
2011,09,24,02,56,12.80
2011,09,24,02,57,12.70
2011,09,24,02,58,12.70
2011,09,24,02,59,12.70
2011,09,24,03,00,12.70
2011,09,24,03,01,12.70
2011,09,24,03,02,12.70
2011,09,24,03,03,12.70
2011,09,24,03,04,12.70
2011,09,24,03,05,12.60
2011,09,24,03,06,12.60
2011,09,24,03,07,12.60
2011,09,24,03,08,12.60
2011,09,24,03,09,12.60
2011,09,24,03,10,12.60
2011,09,24,03,11,12.60
2011,09,24,03,12,12.50
2011,09,24,03,13,12.50
2011,09,24,03,14,12.50
2011,09,24,03,15,12.50
2011,09,24,03,16,12.40
2011,09,24,03,17,12.40
2011,09,24,03,18,12.40
2011,09,24,03,19,12.40
2011,09,24,03,20,12.40
2011,09,24,03,21,12.40
2011,09,24,03,22,12.40
2011,09,24,03,23,12.40
2011,09,24,03,24,12.30
2011,09,24,03,25,12.30
2011,09,24,03,26,12.30
2011,09,24,03,27,12.30
2011,09,24,03,28,12.30
2011,09,24,03,29,12.30
2011,09,24,03,30,12.30
2011,09,24,03,31,12.30
2011,09,24,03,32,12.30
2011,09,24,03,33,12.20
2011,09,24,03,34,12.20
2011,09,24,03,35,12.20
2011,09,24,03,36,12.20
2011,09,24,03,37,12.20
2011,09,24,03,38,12.20
2011,09,24,03,39,12.20
2011,09,24,03,40,12.20
2011,09,24,03,41,12.20
2011,09,24,03,42,12.20
2011,09,24,03,43,12.20
2011,09,24,03,44,12.20
2011,09,24,03,45,12.20
2011,09,24,03,46,12.20
2011,09,24,03,47,12.20
2011,09,24,03,48,12.20
2011,09,24,03,49,12.20
2011,09,24,03,50,12.20
2011,09,24,03,51,12.20
2011,09,24,03,52,12.20
2011,09,24,03,53,12.20
2011,09,24,03,54,12.20
2011,09,24,03,55,12.20
2011,09,24,03,56,12.20
2011,09,24,03,57,12.30
2011,09,24,03,58,12.30
2011,09,24,03,59,12.30
2011,09,24,04,00,12.30
2011,09,24,04,01,12.30
2011,09,24,04,02,12.30
2011,09,24,04,03,12.30
2011,09,24,04,04,12.30
2011,09,24,04,05,12.30
2011,09,24,04,06,12.30
2011,09,24,04,07,12.30
2011,09,24,04,08,12.30
2011,09,24,04,09,12.30
2011,09,24,04,10,12.30
2011,09,24,04,11,12.30
2011,09,24,04,12,12.30
2011,09,24,04,13,12.30
2011,09,24,04,14,12.20
2011,09,24,04,15,12.20
2011,09,24,04,16,12.20
2011,09,24,04,17,12.20
2011,09,24,04,18,12.20
2011,09,24,04,19,12.20
2011,09,24,04,20,12.20
2011,09,24,04,21,12.20
2011,09,24,04,22,12.20
2011,09,24,04,23,12.20
2011,09,24,04,24,12.20
2011,09,24,04,25,12.20
2011,09,24,04,26,12.20
2011,09,24,04,27,12.20
2011,09,24,04,28,12.20
2011,09,24,04,29,12.20
2011,09,24,04,30,12.20
2011,09,24,04,31,12.20
2011,09,24,04,32,12.20
2011,09,24,04,33,12.20
2011,09,24,04,34,12.20
2011,09,24,04,35,12.20
2011,09,24,04,36,12.20
2011,09,24,04,37,12.20
2011,09,24,04,38,12.20
2011,09,24,04,39,12.20
2011,09,24,04,40,12.10
2011,09,24,04,41,12.10
2011,09,24,04,42,12.10
2011,09,24,04,43,12.10
2011,09,24,04,44,12.10
2011,09,24,04,45,12.10
2011,09,24,04,46,12.10
2011,09,24,04,47,12.10
2011,09,24,04,48,12.10
2011,09,24,04,49,12.10
2011,09,24,04,50,12.10
2011,09,24,04,51,12.10
2011,09,24,04,52,12.10
2011,09,24,04,53,12.10
2011,09,24,04,54,12.10
2011,09,24,04,55,12.10
2011,09,24,04,56,12.10
2011,09,24,04,57,12.10
2011,09,24,04,58,12.10
2011,09,24,04,59,12.10
2011,09,24,05,00,12.10
2011,09,24,05,01,12.10
2011,09,24,05,02,12.10
2011,09,24,05,03,12.10
2011,09,24,05,04,12.10
2011,09,24,05,05,12.10
2011,09,24,05,06,12.10
2011,09,24,05,07,12.10
2011,09,24,05,08,12.10
2011,09,24,05,09,12.10
2011,09,24,05,10,12.10
2011,09,24,05,11,12.10
2011,09,24,05,12,12.00
2011,09,24,05,13,12.00
2011,09,24,05,14,12.00
2011,09,24,05,15,12.00
2011,09,24,05,16,12.00
2011,09,24,05,17,12.00
2011,09,24,05,18,11.90
2011,09,24,05,19,11.90
2011,09,24,05,20,11.90
2011,09,24,05,21,11.90
2011,09,24,05,22,11.90
2011,09,24,05,23,11.90
2011,09,24,05,24,11.90
2011,09,24,05,25,11.90
2011,09,24,05,26,11.90
2011,09,24,05,27,11.90
2011,09,24,05,28,11.90
2011,09,24,05,29,11.90
2011,09,24,05,30,11.90
2011,09,24,05,31,11.90
2011,09,24,05,32,11.80
2011,09,24,05,33,11.80
2011,09,24,05,34,11.80
2011,09,24,05,35,11.80
2011,09,24,05,36,11.80
2011,09,24,05,37,11.80
2011,09,24,05,38,11.80
2011,09,24,05,39,11.70
2011,09,24,05,40,11.70
2011,09,24,05,41,11.70
2011,09,24,05,42,11.70
2011,09,24,05,43,11.70
2011,09,24,05,44,11.70
2011,09,24,05,45,11.70
2011,09,24,05,46,11.70
2011,09,24,05,47,11.70
2011,09,24,05,48,11.70
2011,09,24,05,49,11.70
2011,09,24,05,50,11.70
2011,09,24,05,51,11.70
2011,09,24,05,52,11.70
2011,09,24,05,53,11.70
2011,09,24,05,54,11.70
2011,09,24,05,55,11.70
2011,09,24,05,56,11.70
2011,09,24,05,57,11.60
2011,09,24,05,58,11.60
2011,09,24,05,59,11.60
2011,09,24,06,00,11.60
2011,09,24,06,01,11.60
2011,09,24,06,02,11.60
2011,09,24,06,03,11.60
2011,09,24,06,04,11.60
2011,09,24,06,05,11.60
2011,09,24,06,06,11.60
2011,09,24,06,07,11.50
2011,09,24,06,08,11.50
2011,09,24,06,09,11.50
2011,09,24,06,10,11.50
2011,09,24,06,11,11.50
2011,09,24,06,12,11.50
2011,09,24,06,13,11.50
2011,09,24,06,14,11.40
2011,09,24,06,15,11.40
2011,09,24,06,16,11.40
2011,09,24,06,17,11.40
2011,09,24,06,18,11.40
2011,09,24,06,19,11.40
2011,09,24,06,20,11.40
2011,09,24,06,21,11.40
2011,09,24,06,22,11.40
2011,09,24,06,23,11.40
2011,09,24,06,24,11.40
2011,09,24,06,25,11.30
2011,09,24,06,26,11.30
2011,09,24,06,27,11.30
2011,09,24,06,28,11.20
2011,09,24,06,29,11.20
2011,09,24,06,30,11.20
2011,09,24,06,31,11.10
2011,09,24,06,32,11.10
2011,09,24,06,33,11.10
2011,09,24,06,34,11.10
2011,09,24,06,35,11.00
2011,09,24,06,36,11.00
2011,09,24,06,37,11.00
2011,09,24,06,38,11.00
2011,09,24,06,39,11.00
2011,09,24,06,40,11.00
2011,09,24,06,41,11.00
2011,09,24,06,42,10.90
2011,09,24,06,43,10.90
2011,09,24,06,44,10.90
2011,09,24,06,45,10.90
2011,09,24,06,46,10.90
2011,09,24,06,47,10.90
2011,09,24,06,48,10.90
2011,09,24,06,49,10.90
2011,09,24,06,50,10.90
2011,09,24,06,51,10.90
2011,09,24,06,52,10.80
2011,09,24,06,53,10.80
2011,09,24,06,54,10.80
2011,09,24,06,55,10.80
2011,09,24,06,56,10.80
2011,09,24,06,57,10.80
2011,09,24,06,58,10.80
2011,09,24,06,59,10.80
2011,09,24,07,00,10.80
2011,09,24,07,01,10.80
2011,09,24,07,02,10.80
2011,09,24,07,03,10.80
2011,09,24,07,04,10.90
2011,09,24,07,05,10.90
2011,09,24,07,06,10.90
2011,09,24,07,07,10.90
2011,09,24,07,08,10.90
2011,09,24,07,09,10.90
2011,09,24,07,10,10.90
2011,09,24,07,11,11.00
2011,09,24,07,12,11.00
2011,09,24,07,13,11.00
2011,09,24,07,14,11.10
2011,09,24,07,15,11.10
2011,09,24,07,16,11.10
2011,09,24,07,17,11.10
2011,09,24,07,18,11.10
2011,09,24,07,19,11.10
2011,09,24,07,20,11.10
2011,09,24,07,21,11.10
2011,09,24,07,22,11.10
2011,09,24,07,23,11.20
2011,09,24,07,24,11.20
2011,09,24,07,25,11.20
2011,09,24,07,26,11.20
2011,09,24,07,27,11.20
2011,09,24,07,28,11.20
2011,09,24,07,29,11.20
2011,09,24,07,30,11.20
2011,09,24,07,31,11.20
2011,09,24,07,32,11.20
2011,09,24,07,33,11.20
2011,09,24,07,34,11.20
2011,09,24,07,35,11.20
2011,09,24,07,36,11.30
2011,09,24,07,37,11.30
2011,09,24,07,38,11.30
2011,09,24,07,39,11.30
2011,09,24,07,40,11.30
2011,09,24,07,41,11.30
2011,09,24,07,42,11.30
2011,09,24,07,43,11.30
2011,09,24,07,44,11.30
2011,09,24,07,45,11.30
2011,09,24,07,46,11.40
2011,09,24,07,47,11.40
2011,09,24,07,48,11.40
2011,09,24,07,49,11.40
2011,09,24,07,50,11.40
2011,09,24,07,51,11.40
2011,09,24,07,52,11.40
2011,09,24,07,53,11.40
2011,09,24,07,54,11.40
2011,09,24,07,55,11.50
2011,09,24,07,56,11.50
2011,09,24,07,57,11.50
2011,09,24,07,58,11.50
2011,09,24,07,59,11.50
2011,09,24,08,00,11.60
2011,09,24,08,01,11.60
2011,09,24,08,02,11.60
2011,09,24,08,03,11.70
2011,09,24,08,04,11.70
2011,09,24,08,05,11.70
2011,09,24,08,06,11.70
2011,09,24,08,07,11.80
2011,09,24,08,08,11.80
2011,09,24,08,09,11.80
2011,09,24,08,10,11.80
2011,09,24,08,11,11.80
2011,09,24,08,12,11.80
2011,09,24,08,13,11.80
2011,09,24,08,14,11.80
2011,09,24,08,15,11.80
2011,09,24,08,16,11.80
2011,09,24,08,17,11.80
2011,09,24,08,18,11.80
2011,09,24,08,19,11.80
2011,09,24,08,20,11.80
2011,09,24,08,21,11.90
2011,09,24,08,22,11.90
2011,09,24,08,23,11.90
2011,09,24,08,24,11.90
2011,09,24,08,25,11.90
2011,09,24,08,26,11.90
2011,09,24,08,27,11.90
2011,09,24,08,28,11.90
2011,09,24,08,29,11.90
2011,09,24,08,30,11.90
2011,09,24,08,31,11.90
2011,09,24,08,32,11.90
2011,09,24,08,33,11.90
2011,09,24,08,34,11.90
2011,09,24,08,35,11.90
2011,09,24,08,36,11.90
2011,09,24,08,37,12.00
2011,09,24,08,38,12.00
2011,09,24,08,39,12.00
2011,09,24,08,40,12.10
2011,09,24,08,41,12.10
2011,09,24,08,42,12.10
2011,09,24,08,43,12.10
2011,09,24,08,44,12.10
2011,09,24,08,45,12.10
2011,09,24,08,46,12.10
2011,09,24,08,47,12.10
2011,09,24,08,48,12.10
2011,09,24,08,49,12.10
2011,09,24,08,50,12.10
2011,09,24,08,51,12.10
2011,09,24,08,52,12.10
2011,09,24,08,53,12.10
2011,09,24,08,54,12.10
2011,09,24,08,55,12.10
2011,09,24,08,56,12.20
2011,09,24,08,57,12.20
2011,09,24,08,58,12.20
2011,09,24,08,59,12.20
2011,09,24,09,00,12.30
2011,09,24,09,01,12.30
2011,09,24,09,02,12.30
2011,09,24,09,03,12.30
2011,09,24,09,04,12.30
2011,09,24,09,05,12.30
2011,09,24,09,06,12.40
2011,09,24,09,07,12.40
2011,09,24,09,08,12.40
2011,09,24,09,09,12.40
2011,09,24,09,10,12.50
2011,09,24,09,11,12.50
2011,09,24,09,12,12.60
2011,09,24,09,13,12.60
2011,09,24,09,14,12.60
2011,09,24,09,15,12.60
2011,09,24,09,16,12.60
2011,09,24,09,17,12.70
2011,09,24,09,18,12.70
2011,09,24,09,19,12.70
2011,09,24,09,20,12.70
2011,09,24,09,21,12.70
2011,09,24,09,22,12.70
2011,09,24,09,23,12.80
2011,09,24,09,24,12.80
2011,09,24,09,25,12.80
2011,09,24,09,26,12.80
2011,09,24,09,27,12.80
2011,09,24,09,28,12.80
2011,09,24,09,29,12.90
2011,09,24,09,30,12.90
2011,09,24,09,31,13.00
2011,09,24,09,32,13.00
2011,09,24,09,33,13.10
2011,09,24,09,34,13.10
2011,09,24,09,35,13.20
2011,09,24,09,36,13.20
2011,09,24,09,37,13.30
2011,09,24,09,38,13.40
2011,09,24,09,39,13.40
2011,09,24,09,40,13.50
2011,09,24,09,41,13.60
2011,09,24,09,42,13.60
2011,09,24,09,43,13.70
2011,09,24,09,44,13.80
2011,09,24,09,45,13.80
2011,09,24,09,46,13.80
2011,09,24,09,47,13.90
2011,09,24,09,48,13.90
2011,09,24,09,49,14.00
2011,09,24,09,50,14.00
2011,09,24,09,51,14.00
2011,09,24,09,52,14.00
2011,09,24,09,53,14.10
2011,09,24,09,54,14.10
2011,09,24,09,55,14.10
2011,09,24,09,56,14.20
2011,09,24,09,57,14.30
2011,09,24,09,58,14.30
2011,09,24,09,59,14.40
2011,09,24,10,00,14.50
2011,09,24,10,01,14.50
2011,09,24,10,02,14.60
2011,09,24,10,03,14.70
2011,09,24,10,04,14.80
2011,09,24,10,05,15.00
2011,09,24,10,06,15.00
2011,09,24,10,07,15.00
2011,09,24,10,08,15.10
2011,09,24,10,09,15.20
2011,09,24,10,10,15.30
2011,09,24,10,11,15.40
2011,09,24,10,12,15.50
2011,09,24,10,13,15.60
2011,09,24,10,14,15.80
2011,09,24,10,15,15.90
2011,09,24,10,16,16.00
2011,09,24,10,17,16.20
2011,09,24,10,18,16.30
2011,09,24,10,19,16.40
2011,09,24,10,20,16.50
2011,09,24,10,21,16.60
2011,09,24,10,22,16.70
2011,09,24,10,23,16.70
2011,09,24,10,24,16.80
2011,09,24,10,25,16.80
2011,09,24,10,26,16.80
2011,09,24,10,27,16.80
2011,09,24,10,28,16.90
2011,09,24,10,29,16.90
2011,09,24,10,30,16.90
2011,09,24,10,31,16.90
2011,09,24,10,32,16.90
2011,09,24,10,33,17.00
2011,09,24,10,34,17.00
2011,09,24,10,35,17.10
2011,09,24,10,36,17.10
2011,09,24,10,37,17.10
2011,09,24,10,38,17.20
2011,09,24,10,39,17.20
2011,09,24,10,40,17.30
2011,09,24,10,41,17.30
2011,09,24,10,42,17.40
2011,09,24,10,43,17.50
2011,09,24,10,44,17.50
2011,09,24,10,45,17.60
2011,09,24,10,46,17.70
2011,09,24,10,47,17.70
2011,09,24,10,48,17.80
2011,09,24,10,49,17.80
2011,09,24,10,50,17.90
2011,09,24,10,51,17.90
2011,09,24,10,52,18.00
2011,09,24,10,53,18.00
2011,09,24,10,54,18.00
2011,09,24,10,55,18.10
2011,09,24,10,56,18.20
2011,09,24,10,57,18.20
2011,09,24,10,58,18.30
2011,09,24,10,59,18.30
2011,09,24,11,00,18.30
2011,09,24,11,01,18.30
2011,09,24,11,02,18.40
2011,09,24,11,03,18.40
2011,09,24,11,04,18.40
2011,09,24,11,05,18.50
2011,09,24,11,06,18.60
2011,09,24,11,07,18.70
2011,09,24,11,08,18.80
2011,09,24,11,09,18.80
2011,09,24,11,10,18.90
2011,09,24,11,11,18.90
2011,09,24,11,12,19.00
2011,09,24,11,13,19.10
2011,09,24,11,14,19.10
2011,09,24,11,15,19.10
2011,09,24,11,16,19.10
2011,09,24,11,17,19.20
2011,09,24,11,18,19.20
2011,09,24,11,19,19.30
2011,09,24,11,20,19.40
2011,09,24,11,21,19.40
2011,09,24,11,22,19.40
2011,09,24,11,23,19.50
2011,09,24,11,24,19.50
2011,09,24,11,25,19.50
2011,09,24,11,26,19.60
2011,09,24,11,27,19.50
2011,09,24,11,28,19.50
2011,09,24,11,29,19.50
2011,09,24,11,30,19.50
2011,09,24,11,31,19.60
2011,09,24,11,32,19.60
2011,09,24,11,33,19.60
2011,09,24,11,34,19.60
2011,09,24,11,35,19.50
2011,09,24,11,36,19.40
2011,09,24,11,37,19.40
2011,09,24,11,38,19.40
2011,09,24,11,39,19.50
2011,09,24,11,40,19.60
2011,09,24,11,41,19.70
2011,09,24,11,42,19.70
2011,09,24,11,43,19.70
2011,09,24,11,44,19.70
2011,09,24,11,45,19.70
2011,09,24,11,46,19.70
2011,09,24,11,47,19.70
2011,09,24,11,48,19.70
2011,09,24,11,49,19.70
2011,09,24,11,50,19.70
2011,09,24,11,51,19.60
2011,09,24,11,52,19.50
2011,09,24,11,53,19.40
2011,09,24,11,54,19.30
2011,09,24,11,55,19.30
2011,09,24,11,56,19.20
2011,09,24,11,57,19.20
2011,09,24,11,58,19.20
2011,09,24,11,59,19.10
2011,09,24,12,00,19.10
2011,09,24,12,01,19.10
2011,09,24,12,02,19.10
2011,09,24,12,03,19.00
2011,09,24,12,04,19.00
2011,09,24,12,05,19.00
2011,09,24,12,06,19.00
2011,09,24,12,07,18.90
2011,09,24,12,08,18.90
2011,09,24,12,09,18.90
2011,09,24,12,10,18.90
2011,09,24,12,11,18.90
2011,09,24,12,12,18.90
2011,09,24,12,13,19.00
2011,09,24,12,14,19.00
2011,09,24,12,15,18.90
2011,09,24,12,16,18.90
2011,09,24,12,17,19.00
2011,09,24,12,18,19.00
2011,09,24,12,19,19.00
2011,09,24,12,20,19.00
2011,09,24,12,21,19.10
2011,09,24,12,22,19.10
2011,09,24,12,23,19.10
2011,09,24,12,24,19.10
2011,09,24,12,25,19.10
2011,09,24,12,26,19.20
2011,09,24,12,27,19.20
2011,09,24,12,28,19.30
2011,09,24,12,29,19.30
2011,09,24,12,30,19.40
2011,09,24,12,31,19.40
2011,09,24,12,32,19.40
2011,09,24,12,33,19.50
2011,09,24,12,34,19.60
2011,09,24,12,35,19.70
2011,09,24,12,36,19.70
2011,09,24,12,37,19.80
2011,09,24,12,38,19.80
2011,09,24,12,39,19.90
2011,09,24,12,40,19.90
2011,09,24,12,41,20.00
2011,09,24,12,42,20.10
2011,09,24,12,43,20.20
2011,09,24,12,44,20.30
2011,09,24,12,45,20.30
2011,09,24,12,46,20.40
2011,09,24,12,47,20.40
2011,09,24,12,48,20.40
2011,09,24,12,49,20.40
2011,09,24,12,50,20.50
2011,09,24,12,51,20.50
2011,09,24,12,52,20.40
2011,09,24,12,53,20.50
2011,09,24,12,54,20.50
2011,09,24,12,55,20.50
2011,09,24,12,56,20.50
2011,09,24,12,57,20.40
2011,09,24,12,58,20.40
2011,09,24,12,59,20.50
2011,09,24,13,00,20.50
2011,09,24,13,01,20.50
2011,09,24,13,02,20.50
2011,09,24,13,03,20.60
2011,09,24,13,04,20.60
2011,09,24,13,05,20.60
2011,09,24,13,06,20.70
2011,09,24,13,07,20.70
2011,09,24,13,08,20.70
2011,09,24,13,09,20.70
2011,09,24,13,10,20.80
2011,09,24,13,11,20.90
2011,09,24,13,12,20.90
2011,09,24,13,13,21.00
2011,09,24,13,14,21.10
2011,09,24,13,15,21.20
2011,09,24,13,16,21.20
2011,09,24,13,17,21.30
2011,09,24,13,18,21.40
2011,09,24,13,19,21.50
2011,09,24,13,20,21.60
2011,09,24,13,21,21.60
2011,09,24,13,22,21.70
2011,09,24,13,23,21.80
2011,09,24,13,24,21.80
2011,09,24,13,25,21.80
2011,09,24,13,26,21.90
2011,09,24,13,27,21.90
2011,09,24,13,28,22.00
2011,09,24,13,29,22.00
2011,09,24,13,30,22.10
2011,09,24,13,31,22.00
2011,09,24,13,32,22.00
2011,09,24,13,33,22.00
2011,09,24,13,34,22.00
2011,09,24,13,35,22.00
2011,09,24,13,36,21.90
2011,09,24,13,37,21.80
2011,09,24,13,38,21.80
2011,09,24,13,39,21.70
2011,09,24,13,40,21.70
2011,09,24,13,41,21.70
2011,09,24,13,42,21.70
2011,09,24,13,43,21.70
2011,09,24,13,44,21.80
2011,09,24,13,45,21.80
2011,09,24,13,46,21.80
2011,09,24,13,47,21.80
2011,09,24,13,48,21.80
2011,09,24,13,49,21.80
2011,09,24,13,50,21.80
2011,09,24,13,51,21.90
2011,09,24,13,52,21.90
2011,09,24,13,53,22.00
2011,09,24,13,54,22.10
2011,09,24,13,55,22.10
2011,09,24,13,56,22.10
2011,09,24,13,57,22.10
2011,09,24,13,58,22.10
2011,09,24,13,59,22.00
2011,09,24,14,00,21.90
2011,09,24,14,01,21.90
2011,09,24,14,02,21.80
2011,09,24,14,03,21.80
2011,09,24,14,04,21.80
2011,09,24,14,05,21.80
2011,09,24,14,06,21.70
2011,09,24,14,07,21.70
2011,09,24,14,08,21.70
2011,09,24,14,09,21.60
2011,09,24,14,10,21.60
2011,09,24,14,11,21.60
2011,09,24,14,12,21.60
2011,09,24,14,13,21.60
2011,09,24,14,14,21.50
2011,09,24,14,15,21.50
2011,09,24,14,16,21.50
2011,09,24,14,17,21.50
2011,09,24,14,18,21.50
2011,09,24,14,19,21.40
2011,09,24,14,20,21.50
2011,09,24,14,21,21.50
2011,09,24,14,22,21.50
2011,09,24,14,23,21.50
2011,09,24,14,24,21.50
2011,09,24,14,25,21.50
2011,09,24,14,26,21.50
2011,09,24,14,27,21.40
2011,09,24,14,28,21.40
2011,09,24,14,29,21.40
2011,09,24,14,30,21.30
2011,09,24,14,31,21.30
2011,09,24,14,32,21.30
2011,09,24,14,33,21.30
2011,09,24,14,34,21.30
2011,09,24,14,35,21.20
2011,09,24,14,36,21.20
2011,09,24,14,37,21.20
2011,09,24,14,38,21.20
2011,09,24,14,39,21.20
2011,09,24,14,40,21.10
2011,09,24,14,41,21.00
2011,09,24,14,42,21.00
2011,09,24,14,43,21.00
2011,09,24,14,44,20.90
2011,09,24,14,45,20.90
2011,09,24,14,46,20.90
2011,09,24,14,47,20.90
2011,09,24,14,48,20.90
2011,09,24,14,49,20.80
2011,09,24,14,50,20.80
2011,09,24,14,51,20.80
2011,09,24,14,52,20.70
2011,09,24,14,53,20.70
2011,09,24,14,54,20.60
2011,09,24,14,55,20.60
2011,09,24,14,56,20.60
2011,09,24,14,57,20.60
2011,09,24,14,58,20.60
2011,09,24,14,59,20.60
2011,09,24,15,00,20.50
2011,09,24,15,01,20.50
2011,09,24,15,02,20.50
2011,09,24,15,03,20.50
2011,09,24,15,04,20.50
2011,09,24,15,05,20.50
2011,09,24,15,06,20.40
2011,09,24,15,07,20.40
2011,09,24,15,08,20.40
2011,09,24,15,09,20.40
2011,09,24,15,10,20.50
2011,09,24,15,11,20.50
2011,09,24,15,12,20.50
2011,09,24,15,13,20.60
2011,09,24,15,14,20.60
2011,09,24,15,15,20.60
2011,09,24,15,16,20.60
2011,09,24,15,17,20.60
2011,09,24,15,18,20.60
2011,09,24,15,19,20.60
2011,09,24,15,20,20.60
2011,09,24,15,21,20.60
2011,09,24,15,22,20.50
2011,09,24,15,23,20.50
2011,09,24,15,24,20.50
2011,09,24,15,25,20.50
2011,09,24,15,26,20.50
2011,09,24,15,27,20.40
2011,09,24,15,28,20.50
2011,09,24,15,29,20.50
2011,09,24,15,30,20.40
2011,09,24,15,31,20.50
2011,09,24,15,32,20.40
2011,09,24,15,33,20.40
2011,09,24,15,34,20.40
2011,09,24,15,35,20.40
2011,09,24,15,36,20.40
2011,09,24,15,37,20.50
2011,09,24,15,38,20.50
2011,09,24,15,39,20.50
2011,09,24,15,40,20.60
2011,09,24,15,41,20.60
2011,09,24,15,42,20.70
2011,09,24,15,43,20.70
2011,09,24,15,44,20.80
2011,09,24,15,45,20.80
2011,09,24,15,46,20.80
2011,09,24,15,47,20.90
2011,09,24,15,48,20.90
2011,09,24,15,49,20.90
2011,09,24,15,50,20.90
2011,09,24,15,51,20.90
2011,09,24,15,52,21.00
2011,09,24,15,53,21.00
2011,09,24,15,54,21.10
2011,09,24,15,55,21.10
2011,09,24,15,56,21.10
2011,09,24,15,57,21.10
2011,09,24,15,58,21.10
2011,09,24,15,59,21.20
2011,09,24,16,00,21.20
2011,09,24,16,01,21.20
2011,09,24,16,02,21.30
2011,09,24,16,03,21.30
2011,09,24,16,04,21.30
2011,09,24,16,05,21.40
2011,09,24,16,06,21.50
2011,09,24,16,07,21.50
2011,09,24,16,08,21.60
2011,09,24,16,09,21.70
2011,09,24,16,10,21.70
2011,09,24,16,11,21.70
2011,09,24,16,12,21.70
2011,09,24,16,13,21.70
2011,09,24,16,14,21.70
2011,09,24,16,15,21.70
2011,09,24,16,16,21.60
2011,09,24,16,17,21.60
2011,09,24,16,18,21.60
2011,09,24,16,19,21.50
2011,09,24,16,20,21.50
2011,09,24,16,21,21.50
2011,09,24,16,22,21.50
2011,09,24,16,23,21.50
2011,09,24,16,24,21.50
2011,09,24,16,25,21.50
2011,09,24,16,26,21.50
2011,09,24,16,27,21.60
2011,09,24,16,28,21.60
2011,09,24,16,29,21.60
2011,09,24,16,30,21.60
2011,09,24,16,31,21.60
2011,09,24,16,32,21.50
2011,09,24,16,33,21.40
2011,09,24,16,34,21.30
2011,09,24,16,35,21.30
2011,09,24,16,36,21.20
2011,09,24,16,37,21.20
2011,09,24,16,38,21.20
2011,09,24,16,39,21.10
2011,09,24,16,40,21.10
2011,09,24,16,41,21.10
2011,09,24,16,42,21.10
2011,09,24,16,43,21.10
2011,09,24,16,44,21.10
2011,09,24,16,45,21.00
2011,09,24,16,46,21.00
2011,09,24,16,47,20.90
2011,09,24,16,48,20.90
2011,09,24,16,49,20.90
2011,09,24,16,50,20.90
2011,09,24,16,51,20.90
2011,09,24,16,52,20.90
2011,09,24,16,53,20.80
2011,09,24,16,54,20.80
2011,09,24,16,55,20.80
2011,09,24,16,56,20.80
2011,09,24,16,57,20.80
2011,09,24,16,58,20.80
2011,09,24,16,59,20.80
2011,09,24,17,00,20.80
2011,09,24,17,01,20.80
2011,09,24,17,02,20.80
2011,09,24,17,03,20.80
2011,09,24,17,04,20.80
2011,09,24,17,05,20.80
2011,09,24,17,06,20.80
2011,09,24,17,07,20.80
2011,09,24,17,08,20.80
2011,09,24,17,09,20.80
2011,09,24,17,10,20.80
2011,09,24,17,11,20.80
2011,09,24,17,12,20.80
2011,09,24,17,13,20.80
2011,09,24,17,14,20.80
2011,09,24,17,15,20.80
2011,09,24,17,16,20.80
2011,09,24,17,17,20.80
2011,09,24,17,18,20.80
2011,09,24,17,19,20.80